Location: Newark
(45.7667°N, 11.5167°E)
Time: 01:09:58
(UTC+00:00)

Envisat - Pass Details

Date: 26 January 2020
Orbit: 764 x 766 km, 98.1° (Epoch: 27 February)

Event Time Altitude Azimuth Distance (km) Brightness Sun altitude
Rises 05:33:42 0° 18° (NNE) 3,243 6.3 -12.1°
Reaches altitude 10° 05:36:06 10° 24° (NNE) 2,312 5.6 -11.7°
Maximum altitude 05:41:02 49° 99° (E) 980 4.1 -10.9°
Drops below altitude 10° 05:45:56 10° 174° (S) 2,295 5.8 -10.1°
Sets 05:48:18 0° 180° (S) 3,216 6.5 -9.7°
